Terminal Aerodrome Forecast
Issued by NWS Twin Cities, MN

Home | Current Version | Previous Version | Graphics & Text | Print | Product List | Glossary On
Versions: 1 2 3 4 5 6 7 8 9 10 11 12 13 14 15 16 17 18
000
FTUS43 KMPX 270500
TAFSTC
TAF
KSTC 270525Z 2706/2806 VRB02KT P6SM BKN100 BKN250
      TEMPO 2706/2707 -SHRA
     FM271500 11005KT P6SM SCT070 SCT250=

USA.gov is the U.S. government's official web portal to all federal, state and local government web resources and services.